TTB YWTN-YBTL

Flight info

Callsign TTB
Flight time 1h 34m
Altitude 9000
Route YWTN HUG BATIR TL YBTL
Aircraft AEST/L-SDF/C

Departure

Time 2026-05-08 06:57
Airport Winton Airport (YWTN)

Arrival

Time 2026-05-08 08:31
Airport Townsville Airport / RAAF Base Townsville (YBTL)
Time Latitude Longitude Altitude Speed Heading
2026-05-08 06:44 -22.36342 143.08524 632 ft 0 kts 62°
2026-05-08 06:50 -22.36342 143.08535 631 ft 6 kts 107°
2026-05-08 06:50 -22.36383 143.08554 631 ft 7 kts 130°
2026-05-08 06:51 -22.36371 143.08598 633 ft 7 kts 57°
2026-05-08 06:51 -22.36359 143.08617 631 ft 0 kts 54°
2026-05-08 06:52 -22.36340 143.08647 632 ft 8 kts 47°
2026-05-08 06:52 -22.36279 143.08630 633 ft 12 kts 328°
2026-05-08 06:52 -22.36207 143.08584 635 ft 13 kts 329°
2026-05-08 06:53 -22.36127 143.08530 635 ft 14 kts 327°
2026-05-08 06:53 -22.36038 143.08472 636 ft 15 kts 327°
2026-05-08 06:53 -22.35949 143.08415 637 ft 15 kts 330°
2026-05-08 06:53 -22.35859 143.08356 638 ft 16 kts 327°
2026-05-08 06:54 -22.35775 143.08293 640 ft 13 kts 317°
2026-05-08 06:54 -22.35735 143.08264 641 ft 7 kts 13°
2026-05-08 06:54 -22.35754 143.08291 640 ft 7 kts 149°
2026-05-08 06:54 -22.35756 143.08293 640 ft 0 kts 148°
2026-05-08 06:56 -22.35843 143.08349 639 ft 52 kts 147°
2026-05-08 06:57 -22.36293 143.08638 720 ft 86 kts 148°
2026-05-08 06:57 -22.36809 143.08995 994 ft 91 kts 148°
2026-05-08 06:57 -22.37390 143.09379 1434 ft 103 kts 147°
2026-05-08 06:57 -22.37805 143.10028 1737 ft 117 kts 99°
2026-05-08 06:58 -22.37462 143.10861 1954 ft 134 kts 48°
2026-05-08 06:58 -22.36632 143.11433 2195 ft 149 kts 36°
2026-05-08 06:58 -22.35683 143.11978 2371 ft 161 kts 34°
2026-05-08 06:58 -22.34665 143.12555 2630 ft 167 kts 34°
2026-05-08 06:59 -22.33630 143.13158 2905 ft 170 kts 34°
2026-05-08 06:59 -22.32612 143.13763 3204 ft 165 kts 34°
2026-05-08 06:59 -22.31620 143.14359 3478 ft 161 kts 34°
2026-05-08 06:59 -22.30653 143.14945 3742 ft 159 kts 34°
2026-05-08 07:00 -22.29697 143.15524 4016 ft 157 kts 34°
2026-05-08 07:00 -22.28725 143.16068 4279 ft 157 kts 31°
2026-05-08 07:00 -22.27739 143.16594 4550 ft 158 kts 31°
2026-05-08 07:00 -22.26752 143.17118 4809 ft 158 kts 31°
2026-05-08 07:01 -22.25784 143.17639 5055 ft 156 kts 31°
2026-05-08 07:01 -22.24809 143.18170 5307 ft 155 kts 31°
2026-05-08 07:01 -22.23848 143.18697 5551 ft 154 kts 31°
2026-05-08 07:01 -22.22899 143.19227 5793 ft 153 kts 31°
2026-05-08 07:02 -22.21953 143.19759 6022 ft 154 kts 30°
2026-05-08 07:02 -22.20994 143.20303 6294 ft 157 kts 31°
2026-05-08 07:02 -22.20045 143.20851 6590 ft 157 kts 32°
2026-05-08 07:03 -22.17323 143.22763 7425 ft 159 kts 36°
2026-05-08 07:03 -22.16403 143.23423 7687 ft 159 kts 36°
2026-05-08 07:03 -22.15479 143.24087 7954 ft 159 kts 36°
2026-05-08 07:04 -22.14553 143.24752 8223 ft 160 kts 36°
2026-05-08 07:04 -22.13627 143.25419 8470 ft 161 kts 36°
2026-05-08 07:04 -22.12689 143.26101 8746 ft 163 kts 36°
2026-05-08 07:04 -22.11733 143.26796 8966 ft 169 kts 36°
2026-05-08 07:05 -22.10730 143.27529 9076 ft 179 kts 36°
2026-05-08 07:05 -22.09667 143.28308 9108 ft 190 kts 36°
2026-05-08 07:05 -22.08558 143.29126 9112 ft 199 kts 36°
2026-05-08 07:05 -22.07397 143.29984 9113 ft 206 kts 36°
2026-05-08 07:06 -22.06201 143.30869 9115 ft 210 kts 36°
2026-05-08 07:06 -22.04983 143.31770 9101 ft 214 kts 36°
2026-05-08 07:06 -22.03748 143.32682 9115 ft 215 kts 36°
2026-05-08 07:06 -22.02507 143.33597 9102 ft 217 kts 36°
2026-05-08 07:07 -22.01259 143.34519 9107 ft 218 kts 36°
2026-05-08 07:07 -22.00005 143.35443 9102 ft 219 kts 36°
2026-05-08 07:07 -21.98759 143.36359 9098 ft 219 kts 36°
2026-05-08 07:07 -21.97503 143.37287 9111 ft 219 kts 36°
2026-05-08 07:08 -21.96249 143.38217 9104 ft 219 kts 36°
2026-05-08 07:08 -21.94990 143.39147 9107 ft 219 kts 36°
2026-05-08 07:08 -21.93733 143.40075 9103 ft 219 kts 36°
2026-05-08 07:08 -21.92490 143.40994 9112 ft 218 kts 36°
2026-05-08 07:09 -21.91241 143.41918 9110 ft 218 kts 36°
2026-05-08 07:09 -21.89986 143.42845 9106 ft 218 kts 36°
2026-05-08 07:09 -21.88734 143.43776 9085 ft 219 kts 36°
2026-05-08 07:09 -21.87467 143.44715 9027 ft 221 kts 36°
2026-05-08 07:10 -21.86193 143.45656 8962 ft 223 kts 36°
2026-05-08 07:10 -21.84919 143.46598 8971 ft 221 kts 36°
2026-05-08 07:10 -21.83650 143.47535 8955 ft 221 kts 36°
2026-05-08 07:10 -21.82396 143.48460 8952 ft 220 kts 36°
2026-05-08 07:11 -21.81133 143.49392 8960 ft 219 kts 36°
2026-05-08 07:11 -21.79878 143.50318 8968 ft 218 kts 36°
2026-05-08 07:11 -21.78624 143.51243 8948 ft 218 kts 36°
2026-05-08 07:11 -21.77369 143.52169 8954 ft 218 kts 36°
2026-05-08 07:12 -21.76136 143.53081 8952 ft 218 kts 36°
2026-05-08 07:12 -21.74883 143.54003 8948 ft 218 kts 36°
2026-05-08 07:12 -21.73627 143.54926 8954 ft 218 kts 36°
2026-05-08 07:12 -21.72374 143.55852 8954 ft 218 kts 36°
2026-05-08 07:13 -21.71125 143.56776 8944 ft 218 kts 36°
2026-05-08 07:13 -21.69877 143.57703 8952 ft 217 kts 36°
2026-05-08 07:13 -21.68646 143.58618 8943 ft 218 kts 36°
2026-05-08 07:13 -21.67404 143.59539 8948 ft 216 kts 36°
2026-05-08 07:14 -21.66169 143.60460 8946 ft 215 kts 36°
2026-05-08 07:14 -21.64939 143.61381 8956 ft 215 kts 36°
2026-05-08 07:14 -21.63710 143.62304 8952 ft 215 kts 36°
2026-05-08 07:14 -21.62478 143.63229 8941 ft 216 kts 36°
2026-05-08 07:15 -21.61261 143.64144 8940 ft 215 kts 36°
2026-05-08 07:15 -21.60034 143.65070 8943 ft 215 kts 36°
2026-05-08 07:15 -21.58810 143.65994 8953 ft 215 kts 36°
2026-05-08 07:15 -21.57587 143.66920 8946 ft 215 kts 36°
2026-05-08 07:16 -21.56363 143.67847 8951 ft 215 kts 36°
2026-05-08 07:16 -21.55138 143.68776 8948 ft 215 kts 36°
2026-05-08 07:16 -21.53914 143.69705 8933 ft 215 kts 36°
2026-05-08 07:16 -21.52707 143.70623 8936 ft 215 kts 36°
2026-05-08 07:17 -21.51482 143.71558 8932 ft 215 kts 36°
2026-05-08 07:17 -21.50266 143.72484 8940 ft 214 kts 36°
2026-05-08 07:17 -21.49051 143.73411 8946 ft 214 kts 36°
2026-05-08 07:17 -21.47835 143.74341 8944 ft 214 kts 36°
2026-05-08 07:18 -21.46618 143.75269 8950 ft 214 kts 36°
2026-05-08 07:18 -21.45402 143.76196 8942 ft 214 kts 36°
2026-05-08 07:18 -21.44182 143.77127 8943 ft 214 kts 36°
2026-05-08 07:18 -21.42981 143.78042 8942 ft 214 kts 36°
2026-05-08 07:19 -21.41765 143.78971 8938 ft 214 kts 36°
2026-05-08 07:19 -21.40551 143.79900 8935 ft 214 kts 36°
2026-05-08 07:19 -21.39336 143.80827 8936 ft 214 kts 36°
2026-05-08 07:19 -21.38123 143.81751 8935 ft 214 kts 36°
2026-05-08 07:20 -21.36909 143.82677 8939 ft 214 kts 36°
2026-05-08 07:20 -21.35709 143.83590 8935 ft 214 kts 36°
2026-05-08 07:20 -21.34495 143.84514 8931 ft 214 kts 36°
2026-05-08 07:20 -21.33284 143.85438 8937 ft 213 kts 36°
2026-05-08 07:21 -21.32070 143.86365 8928 ft 214 kts 36°
2026-05-08 07:21 -21.30859 143.87289 8929 ft 213 kts 36°
2026-05-08 07:21 -21.29653 143.88213 8930 ft 213 kts 36°
2026-05-08 07:21 -21.28440 143.89144 8930 ft 213 kts 36°
2026-05-08 07:22 -21.27233 143.90067 8933 ft 213 kts 36°
2026-05-08 07:22 -21.26038 143.90981 8931 ft 213 kts 36°
2026-05-08 07:22 -21.24833 143.91903 8919 ft 213 kts 36°
2026-05-08 07:22 -21.23623 143.92828 8923 ft 213 kts 36°
2026-05-08 07:23 -21.22417 143.93750 8918 ft 213 kts 36°
2026-05-08 07:23 -21.21206 143.94675 8919 ft 213 kts 36°
2026-05-08 07:23 -21.19995 143.95598 8916 ft 213 kts 36°
2026-05-08 07:23 -21.18787 143.96519 8922 ft 213 kts 36°
2026-05-08 07:24 -21.17576 143.97442 8916 ft 213 kts 36°
2026-05-08 07:24 -21.16367 143.98365 8921 ft 213 kts 36°
2026-05-08 07:24 -21.15173 143.99276 8919 ft 213 kts 36°
2026-05-08 07:24 -21.13963 144.00197 8917 ft 213 kts 36°
2026-05-08 07:25 -21.12757 144.01117 8922 ft 213 kts 36°
2026-05-08 07:25 -21.11549 144.02040 8921 ft 213 kts 36°
2026-05-08 07:25 -21.09129 144.03886 8915 ft 213 kts 36°
2026-05-08 07:26 -21.07933 144.04794 8919 ft 213 kts 36°
2026-05-08 07:26 -21.06722 144.05710 8918 ft 213 kts 36°
2026-05-08 07:26 -21.05512 144.06627 8917 ft 213 kts 36°
2026-05-08 07:26 -21.04299 144.07543 8917 ft 213 kts 35°
2026-05-08 07:27 -21.03067 144.08423 8912 ft 213 kts 34°
2026-05-08 07:27 -21.01818 144.09300 8912 ft 213 kts 34°
2026-05-08 07:27 -21.00998 144.09875 8908 ft 213 kts 34°
2026-05-08 07:27 -20.99756 144.10746 8915 ft 213 kts 34°
2026-05-08 07:28 -20.98109 144.11900 8916 ft 213 kts 34°
2026-05-08 07:28 -20.97287 144.12476 8916 ft 213 kts 34°
2026-05-08 07:28 -20.95623 144.13642 8913 ft 213 kts 34°
2026-05-08 07:28 -20.94802 144.14215 8911 ft 213 kts 34°
2026-05-08 07:29 -20.93164 144.15363 8916 ft 213 kts 34°
2026-05-08 07:29 -20.92328 144.15950 8919 ft 213 kts 34°
2026-05-08 07:29 -20.91089 144.16819 8917 ft 213 kts 34°
2026-05-08 07:29 -20.89863 144.17676 8918 ft 213 kts 34°
2026-05-08 07:30 -20.88622 144.18543 8917 ft 213 kts 34°
2026-05-08 07:30 -20.87384 144.19409 8915 ft 213 kts 34°
2026-05-08 07:30 -20.86186 144.20337 8920 ft 212 kts 44°
2026-05-08 07:30 -20.85187 144.21501 8908 ft 213 kts 49°
2026-05-08 07:31 -20.84225 144.22700 8912 ft 212 kts 50°
2026-05-08 07:31 -20.83301 144.23914 8902 ft 213 kts 52°
2026-05-08 07:31 -20.82400 144.25164 8909 ft 212 kts 53°
2026-05-08 07:31 -20.81537 144.26445 8902 ft 212 kts 60°
2026-05-08 07:32 -20.80967 144.27896 8915 ft 212 kts 71°
2026-05-08 07:32 -20.80519 144.29397 8917 ft 211 kts 72°
2026-05-08 07:32 -20.80093 144.30882 8909 ft 212 kts 72°
2026-05-08 07:32 -20.79659 144.32396 8897 ft 213 kts 72°
2026-05-08 07:33 -20.79228 144.33910 8909 ft 212 kts 72°
2026-05-08 07:33 -20.78799 144.35423 8909 ft 212 kts 73°
2026-05-08 07:33 -20.78376 144.36938 8911 ft 213 kts 73°
2026-05-08 07:33 -20.77958 144.38439 8913 ft 213 kts 73°
2026-05-08 07:34 -20.77541 144.39958 8912 ft 213 kts 73°
2026-05-08 07:34 -20.77128 144.41478 8914 ft 213 kts 73°
2026-05-08 07:34 -20.76717 144.43004 8909 ft 213 kts 73°
2026-05-08 07:34 -20.76312 144.44532 8911 ft 213 kts 74°
2026-05-08 07:35 -20.75910 144.46057 8913 ft 213 kts 74°
2026-05-08 07:35 -20.75513 144.47573 8910 ft 214 kts 74°
2026-05-08 07:35 -20.75112 144.49111 8897 ft 214 kts 74°
2026-05-08 07:35 -20.74710 144.50644 8912 ft 214 kts 74°
2026-05-08 07:36 -20.74309 144.52173 8910 ft 213 kts 74°
2026-05-08 07:36 -20.73908 144.53698 8922 ft 213 kts 74°
2026-05-08 07:36 -20.73504 144.55223 8919 ft 213 kts 74°
2026-05-08 07:36 -20.73095 144.56754 8905 ft 214 kts 73°
2026-05-08 07:37 -20.72693 144.58264 8905 ft 213 kts 73°
2026-05-08 07:37 -20.72286 144.59790 8914 ft 213 kts 73°
2026-05-08 07:37 -20.71876 144.61309 8920 ft 213 kts 73°
2026-05-08 07:37 -20.71461 144.62842 8926 ft 214 kts 73°
2026-05-08 07:38 -20.71051 144.64354 8927 ft 214 kts 73°
2026-05-08 07:38 -20.70637 144.65881 8923 ft 214 kts 73°
2026-05-08 07:38 -20.70223 144.67409 8924 ft 214 kts 73°
2026-05-08 07:38 -20.69811 144.68933 8931 ft 214 kts 73°
2026-05-08 07:39 -20.69398 144.70462 8921 ft 214 kts 73°
2026-05-08 07:39 -20.68985 144.71993 8921 ft 214 kts 73°
2026-05-08 07:39 -20.68571 144.73524 8930 ft 214 kts 73°
2026-05-08 07:39 -20.68163 144.75049 8927 ft 214 kts 73°
2026-05-08 07:40 -20.67757 144.76562 8914 ft 215 kts 73°
2026-05-08 07:40 -20.67348 144.78094 8916 ft 214 kts 74°
2026-05-08 07:40 -20.66941 144.79627 8924 ft 214 kts 74°
2026-05-08 07:40 -20.66533 144.81163 8921 ft 215 kts 74°
2026-05-08 07:41 -20.66124 144.82701 8922 ft 214 kts 74°
2026-05-08 07:41 -20.65721 144.84212 8918 ft 215 kts 74°
2026-05-08 07:41 -20.65312 144.85746 8920 ft 215 kts 74°
2026-05-08 07:41 -20.64905 144.87278 8927 ft 214 kts 74°
2026-05-08 07:42 -20.64497 144.88808 8929 ft 214 kts 73°
2026-05-08 07:42 -20.64088 144.90339 8933 ft 214 kts 73°
2026-05-08 07:42 -20.63682 144.91853 8928 ft 214 kts 73°
2026-05-08 07:42 -20.63268 144.93386 8930 ft 214 kts 73°
2026-05-08 07:43 -20.62854 144.94924 8925 ft 214 kts 73°
2026-05-08 07:43 -20.62446 144.96439 8922 ft 215 kts 73°
2026-05-08 07:43 -20.62032 144.97975 8925 ft 215 kts 73°
2026-05-08 07:43 -20.61618 144.99512 8926 ft 215 kts 73°
2026-05-08 07:44 -20.61205 145.01048 8922 ft 214 kts 73°
2026-05-08 07:44 -20.60793 145.02577 8929 ft 214 kts 73°
2026-05-08 07:44 -20.60385 145.04087 8923 ft 214 kts 73°
2026-05-08 07:44 -20.59969 145.05623 8924 ft 215 kts 73°
2026-05-08 07:45 -20.59557 145.07158 8932 ft 215 kts 73°
2026-05-08 07:45 -20.59146 145.08691 8934 ft 215 kts 73°
2026-05-08 07:45 -20.58735 145.10227 8931 ft 215 kts 73°
2026-05-08 07:45 -20.58325 145.11761 8937 ft 215 kts 73°
2026-05-08 07:46 -20.57913 145.13298 8935 ft 215 kts 73°
2026-05-08 07:46 -20.57508 145.14817 8927 ft 215 kts 73°
2026-05-08 07:46 -20.57099 145.16358 8931 ft 215 kts 73°
2026-05-08 07:46 -20.56687 145.17899 8926 ft 215 kts 73°
2026-05-08 07:47 -20.56274 145.19438 8934 ft 215 kts 73°
2026-05-08 07:47 -20.55867 145.20953 8934 ft 215 kts 73°
2026-05-08 07:47 -20.55455 145.22491 8933 ft 215 kts 73°
2026-05-08 07:47 -20.55043 145.24027 8931 ft 215 kts 73°
2026-05-08 07:48 -20.54629 145.25568 8925 ft 216 kts 73°
2026-05-08 07:48 -20.54215 145.27104 8926 ft 216 kts 73°
2026-05-08 07:48 -20.53797 145.28645 8925 ft 216 kts 73°
2026-05-08 07:48 -20.53382 145.30180 8934 ft 215 kts 73°
2026-05-08 07:49 -20.52971 145.31697 8922 ft 216 kts 73°
2026-05-08 07:49 -20.52554 145.33236 8919 ft 216 kts 73°
2026-05-08 07:49 -20.52139 145.34776 8930 ft 216 kts 73°
2026-05-08 07:49 -20.51726 145.36315 8935 ft 216 kts 73°
2026-05-08 07:50 -20.51313 145.37855 8927 ft 216 kts 73°
2026-05-08 07:50 -20.50900 145.39400 8933 ft 216 kts 73°
2026-05-08 07:50 -20.50492 145.40924 8917 ft 217 kts 73°
2026-05-08 07:50 -20.50080 145.42468 8920 ft 217 kts 73°
2026-05-08 07:51 -20.49667 145.44019 8919 ft 216 kts 73°
2026-05-08 07:51 -20.49254 145.45568 8912 ft 217 kts 73°
2026-05-08 07:51 -20.48840 145.47115 8917 ft 216 kts 73°
2026-05-08 07:51 -20.48426 145.48655 8918 ft 217 kts 73°
2026-05-08 07:52 -20.48011 145.50191 8920 ft 217 kts 73°
2026-05-08 07:52 -20.47595 145.51737 8924 ft 216 kts 73°
2026-05-08 07:52 -20.47178 145.53284 8922 ft 217 kts 73°
2026-05-08 07:52 -20.46762 145.54834 8918 ft 217 kts 73°
2026-05-08 07:53 -20.46346 145.56378 8918 ft 217 kts 73°
2026-05-08 07:53 -20.45930 145.57923 8927 ft 216 kts 73°
2026-05-08 07:53 -20.45512 145.59475 8910 ft 217 kts 73°
2026-05-08 07:53 -20.45094 145.61025 8909 ft 217 kts 73°
2026-05-08 07:54 -20.44685 145.62552 8912 ft 217 kts 73°
2026-05-08 07:54 -20.44269 145.64099 8911 ft 217 kts 73°
2026-05-08 07:54 -20.43850 145.65655 8913 ft 217 kts 73°
2026-05-08 07:54 -20.43432 145.67205 8911 ft 217 kts 73°
2026-05-08 07:55 -20.43013 145.68759 8908 ft 217 kts 73°
2026-05-08 07:55 -20.42596 145.70308 8924 ft 217 kts 73°
2026-05-08 07:55 -20.42179 145.71861 8912 ft 218 kts 73°
2026-05-08 07:55 -20.41768 145.73392 8909 ft 218 kts 73°
2026-05-08 07:56 -20.41349 145.74947 8911 ft 217 kts 73°
2026-05-08 07:56 -20.40933 145.76493 8913 ft 217 kts 73°
2026-05-08 07:56 -20.40517 145.78042 8909 ft 218 kts 73°
2026-05-08 07:56 -20.40098 145.79595 8908 ft 218 kts 73°
2026-05-08 07:57 -20.39680 145.81146 8906 ft 218 kts 73°
2026-05-08 07:57 -20.39260 145.82698 8904 ft 218 kts 73°
2026-05-08 07:57 -20.38842 145.84246 8916 ft 217 kts 73°
2026-05-08 07:57 -20.38432 145.85771 8923 ft 217 kts 73°
2026-05-08 07:58 -20.38017 145.87319 8919 ft 217 kts 73°
2026-05-08 07:58 -20.37601 145.88871 8905 ft 217 kts 73°
2026-05-08 07:58 -20.37186 145.90421 8912 ft 217 kts 73°
2026-05-08 07:58 -20.36771 145.91972 8908 ft 217 kts 73°
2026-05-08 07:59 -20.36357 145.93521 8905 ft 217 kts 73°
2026-05-08 07:59 -20.35939 145.95072 8904 ft 218 kts 73°
2026-05-08 07:59 -20.35520 145.96630 8900 ft 218 kts 73°
2026-05-08 07:59 -20.35103 145.98181 8897 ft 218 kts 73°
2026-05-08 08:00 -20.34692 145.99715 8915 ft 217 kts 73°
2026-05-08 08:00 -20.34276 146.01262 8923 ft 217 kts 73°
2026-05-08 08:00 -20.33858 146.02815 8910 ft 218 kts 73°
2026-05-08 08:00 -20.33438 146.04370 8908 ft 218 kts 72°
2026-05-08 08:01 -20.33017 146.05925 8911 ft 218 kts 72°
2026-05-08 08:01 -20.32600 146.07474 8917 ft 218 kts 72°
2026-05-08 08:01 -20.32183 146.09024 8907 ft 218 kts 72°
2026-05-08 08:01 -20.31761 146.10585 8900 ft 219 kts 72°
2026-05-08 08:02 -20.31340 146.12138 8918 ft 218 kts 72°
2026-05-08 08:02 -20.30921 146.13691 8921 ft 218 kts 72°
2026-05-08 08:02 -20.30509 146.15221 8912 ft 218 kts 72°
2026-05-08 08:02 -20.30090 146.16777 8908 ft 219 kts 72°
2026-05-08 08:03 -20.29672 146.18336 8910 ft 218 kts 72°
2026-05-08 08:03 -20.29252 146.19897 8899 ft 219 kts 72°
2026-05-08 08:03 -20.28833 146.21459 8900 ft 219 kts 72°
2026-05-08 08:03 -20.28414 146.23021 8906 ft 219 kts 72°
2026-05-08 08:04 -20.27999 146.24556 8898 ft 219 kts 72°
2026-05-08 08:04 -20.27580 146.26112 8919 ft 218 kts 72°
2026-05-08 08:04 -20.27163 146.27667 8912 ft 219 kts 72°
2026-05-08 08:04 -20.26746 146.29227 8916 ft 219 kts 72°
2026-05-08 08:05 -20.26328 146.30787 8913 ft 219 kts 72°
2026-05-08 08:05 -20.25908 146.32346 8903 ft 219 kts 72°
2026-05-08 08:05 -20.25485 146.33912 8902 ft 220 kts 72°
2026-05-08 08:05 -20.25060 146.35473 8896 ft 220 kts 72°
2026-05-08 08:06 -20.24638 146.37033 8906 ft 219 kts 72°
2026-05-08 08:06 -20.24220 146.38575 8903 ft 219 kts 72°
2026-05-08 08:06 -20.23797 146.40137 8912 ft 219 kts 72°
2026-05-08 08:06 -20.23374 146.41699 8891 ft 220 kts 72°
2026-05-08 08:07 -20.22953 146.43266 8891 ft 219 kts 72°
2026-05-08 08:07 -20.22533 146.44831 8902 ft 219 kts 72°
2026-05-08 08:07 -20.22113 146.46389 8920 ft 219 kts 72°
2026-05-08 08:07 -20.21693 146.47947 8915 ft 219 kts 72°
2026-05-08 08:08 -20.21276 146.49494 8902 ft 220 kts 72°
2026-05-08 08:08 -20.20855 146.51064 8901 ft 220 kts 72°
2026-05-08 08:08 -20.20434 146.52630 8911 ft 219 kts 72°
2026-05-08 08:08 -20.20015 146.54190 8918 ft 219 kts 72°
2026-05-08 08:09 -20.19597 146.55756 8913 ft 220 kts 72°
2026-05-08 08:09 -20.19178 146.57323 8918 ft 220 kts 72°
2026-05-08 08:09 -20.18757 146.58891 8917 ft 220 kts 72°
2026-05-08 08:09 -20.18341 146.60437 8919 ft 220 kts 72°
2026-05-08 08:10 -20.17918 146.62008 8918 ft 221 kts 72°
2026-05-08 08:10 -20.17497 146.63582 8920 ft 221 kts 72°
2026-05-08 08:10 -20.17075 146.65150 8918 ft 221 kts 72°
2026-05-08 08:10 -20.16658 146.66723 8914 ft 220 kts 73°
2026-05-08 08:11 -20.16280 146.68307 8919 ft 221 kts 74°
2026-05-08 08:11 -20.15910 146.69872 8919 ft 221 kts 73°
2026-05-08 08:11 -20.15523 146.71454 8925 ft 221 kts 73°
2026-05-08 08:11 -20.15118 146.73038 8924 ft 221 kts 72°
2026-05-08 08:12 -20.14704 146.74618 8922 ft 221 kts 72°
2026-05-08 08:12 -20.14290 146.76198 8920 ft 222 kts 72°
2026-05-08 08:12 -20.13875 146.77780 8916 ft 222 kts 72°
2026-05-08 08:12 -20.13461 146.79363 8918 ft 222 kts 72°
2026-05-08 08:13 -20.12813 146.80837 8931 ft 220 kts 49°
2026-05-08 08:13 -20.11631 146.81809 8912 ft 218 kts 22°
2026-05-08 08:13 -20.10166 146.82132 8923 ft 215 kts
2026-05-08 08:13 -20.08671 146.82195 8916 ft 214 kts
2026-05-08 08:14 -20.07186 146.82269 8918 ft 214 kts
2026-05-08 08:14 -20.05705 146.82230 8904 ft 214 kts 349°
2026-05-08 08:14 -20.04258 146.81900 8923 ft 212 kts 346°
2026-05-08 08:14 -20.02820 146.81527 8920 ft 213 kts 345°
2026-05-08 08:15 -20.01417 146.81097 8916 ft 212 kts 342°
2026-05-08 08:15 -19.99990 146.80699 8914 ft 212 kts 349°
2026-05-08 08:15 -19.98533 146.80460 8922 ft 212 kts 351°
2026-05-08 08:15 -19.97072 146.80238 8918 ft 212 kts 351°
2026-05-08 08:16 -19.95607 146.80012 8918 ft 212 kts 351°
2026-05-08 08:16 -19.94150 146.79779 8918 ft 212 kts 351°
2026-05-08 08:16 -19.93185 146.79622 8921 ft 212 kts 351°
2026-05-08 08:16 -19.91233 146.79306 8914 ft 212 kts 351°
2026-05-08 08:17 -19.89794 146.79071 8916 ft 212 kts 351°
2026-05-08 08:17 -19.88808 146.78911 8920 ft 212 kts 351°
2026-05-08 08:17 -19.87357 146.78641 8921 ft 211 kts 349°
2026-05-08 08:17 -19.85920 146.78399 8919 ft 211 kts 351°
2026-05-08 08:18 -19.84468 146.78134 8918 ft 212 kts 349°
2026-05-08 08:18 -19.83019 146.77841 8911 ft 212 kts 348°
2026-05-08 08:18 -19.81574 146.77539 8921 ft 211 kts 348°
2026-05-08 08:18 -19.80151 146.77233 8916 ft 212 kts 348°
2026-05-08 08:19 -19.78713 146.76916 8916 ft 211 kts 348°
2026-05-08 08:19 -19.77250 146.76587 8912 ft 211 kts 347°
2026-05-08 08:19 -19.75818 146.76254 8897 ft 210 kts 347°
2026-05-08 08:19 -19.74392 146.75911 8722 ft 208 kts 347°
2026-05-08 08:20 -19.72988 146.75566 8485 ft 206 kts 346°
2026-05-08 08:20 -19.71612 146.75220 8247 ft 206 kts 346°
2026-05-08 08:20 -19.70217 146.74862 8004 ft 206 kts 346°
2026-05-08 08:20 -19.68814 146.74495 7762 ft 208 kts 346°
2026-05-08 08:21 -19.67402 146.74124 7524 ft 209 kts 346°
2026-05-08 08:21 -19.65985 146.73749 7294 ft 211 kts 347°
2026-05-08 08:21 -19.64574 146.73372 7068 ft 212 kts 346°
2026-05-08 08:21 -19.63141 146.72977 6844 ft 213 kts 346°
2026-05-08 08:22 -19.61711 146.72577 6624 ft 211 kts 346°
2026-05-08 08:22 -19.60305 146.72181 6364 ft 207 kts 346°
2026-05-08 08:22 -19.58924 146.71791 6090 ft 204 kts 346°
2026-05-08 08:22 -19.57556 146.71404 5817 ft 202 kts 346°
2026-05-08 08:23 -19.56195 146.71018 5545 ft 202 kts 346°
2026-05-08 08:23 -19.54842 146.70636 5275 ft 200 kts 346°
2026-05-08 08:23 -19.53490 146.70260 5011 ft 200 kts 346°
2026-05-08 08:23 -19.52155 146.69888 4741 ft 201 kts 346°
2026-05-08 08:24 -19.50805 146.69513 4474 ft 200 kts 346°
2026-05-08 08:24 -19.49459 146.69135 4214 ft 199 kts 346°
2026-05-08 08:24 -19.48123 146.68754 3993 ft 198 kts 346°
2026-05-08 08:24 -19.46803 146.68371 3820 ft 194 kts 346°
2026-05-08 08:25 -19.45503 146.67990 3648 ft 193 kts 346°
2026-05-08 08:25 -19.44199 146.67704 3523 ft 188 kts
2026-05-08 08:25 -19.42980 146.68044 3472 ft 181 kts 30°
2026-05-08 08:25 -19.41885 146.68654 3387 ft 178 kts 30°
2026-05-08 08:26 -19.40777 146.69219 3234 ft 175 kts 28°
2026-05-08 08:26 -19.39666 146.69735 3050 ft 173 kts 26°
2026-05-08 08:26 -19.38615 146.70194 2848 ft 148 kts 27°
2026-05-08 08:26 -19.37708 146.70613 2578 ft 136 kts 28°
2026-05-08 08:27 -19.36908 146.71041 2404 ft 124 kts 32°
2026-05-08 08:27 -19.36171 146.71464 2251 ft 117 kts 32°
2026-05-08 08:27 -19.35469 146.71856 2125 ft 114 kts 33°
2026-05-08 08:27 -19.34765 146.72254 2014 ft 114 kts 32°
2026-05-08 08:28 -19.34055 146.72622 1914 ft 114 kts 28°
2026-05-08 08:28 -19.33316 146.72942 1713 ft 119 kts 25°
2026-05-08 08:28 -19.32555 146.73252 1507 ft 113 kts 26°
2026-05-08 08:28 -19.31853 146.73582 1320 ft 108 kts 30°
2026-05-08 08:29 -19.31185 146.73931 1162 ft 107 kts 32°
2026-05-08 08:29 -19.30541 146.74279 1070 ft 102 kts 27°
2026-05-08 08:29 -19.29883 146.74549 981 ft 101 kts 26°
2026-05-08 08:29 -19.29246 146.74827 881 ft 95 kts 32°
2026-05-08 08:30 -19.28674 146.75131 750 ft 90 kts 30°
2026-05-08 08:30 -19.28106 146.75392 624 ft 93 kts 30°
2026-05-08 08:30 -19.26969 146.75925 396 ft 87 kts 30°
2026-05-08 08:31 -19.26429 146.76199 249 ft 86 kts 27°
2026-05-08 08:31 -19.25867 146.76457 105 ft 87 kts 26°
2026-05-08 08:31 -19.25417 146.76672 18 ft 39 kts 21°
2026-05-08 08:31 -19.25195 146.76772 14 ft 34 kts 25°
2026-05-08 08:32 -19.25039 146.76848 17 ft 12 kts 24°
2026-05-08 08:32 -19.25028 146.76918 16 ft 12 kts 116°
2026-05-08 08:32 -19.25051 146.76972 16 ft 0 kts 113°
2026-05-08 08:32 -19.25057 146.76987 16 ft 9 kts 113°
2026-05-08 08:33 -19.25099 146.77022 17 ft 11 kts 209°
2026-05-08 08:33 -19.25184 146.76978 18 ft 13 kts 195°
2026-05-08 08:33 -19.25230 146.77011 18 ft 10 kts 117°
2026-05-08 08:33 -19.25260 146.77082 19 ft 11 kts 107°
2026-05-08 08:34 -19.25296 146.77110 19 ft 0 kts 205°